FFT297 KSAN-KSLC

Flight info

Callsign FFT297
Flight time 1h 20m
Altitude 34000
Route ZZOOO4 MTBAL CADEZ HAKMN/N0442F350 Q73 LAKRR MLF QWENN6
Aircraft A321/M-SDE3FGHIRWY/LB1

Departure

Time 2026-04-23 17:09
Airport San Diego International Airport (KSAN)

Arrival

Time 2026-04-23 18:29
Airport Salt Lake City International Airport (KSLC)
Time Latitude Longitude Altitude Speed Heading
2026-04-23 16:41 32.73380 -117.19815 27 ft 0 kts 207°
2026-04-23 16:57 32.73399 -117.19802 26 ft 4 kts 214°
2026-04-23 16:58 32.73421 -117.19783 25 ft 4 kts 219°
2026-04-23 16:58 32.73441 -117.19765 24 ft 4 kts 184°
2026-04-23 16:58 32.73444 -117.19758 23 ft 0 kts 106°
2026-04-23 17:01 32.73444 -117.19756 23 ft 2 kts 106°
2026-04-23 17:01 32.73429 -117.19697 24 ft 12 kts 106°
2026-04-23 17:02 32.73394 -117.19558 23 ft 22 kts 109°
2026-04-23 17:02 32.73351 -117.19369 23 ft 23 kts 106°
2026-04-23 17:02 32.73306 -117.19191 23 ft 21 kts 105°
2026-04-23 17:02 32.73269 -117.19029 23 ft 20 kts 106°
2026-04-23 17:03 32.73231 -117.18877 25 ft 19 kts 107°
2026-04-23 17:03 32.73195 -117.18733 21 ft 18 kts 106°
2026-04-23 17:03 32.73162 -117.18596 22 ft 17 kts 106°
2026-04-23 17:03 32.73130 -117.18465 21 ft 16 kts 106°
2026-04-23 17:04 32.73101 -117.18340 21 ft 15 kts 105°
2026-04-23 17:04 32.73073 -117.18224 21 ft 14 kts 105°
2026-04-23 17:04 32.73047 -117.18114 21 ft 13 kts 106°
2026-04-23 17:04 32.73021 -117.18012 22 ft 12 kts 106°
2026-04-23 17:05 32.72998 -117.17919 22 ft 11 kts 106°
2026-04-23 17:05 32.72978 -117.17836 23 ft 10 kts 106°
2026-04-23 17:05 32.72958 -117.17762 22 ft 9 kts 108°
2026-04-23 17:05 32.72952 -117.17708 22 ft 0 kts 85°
2026-04-23 17:07 32.72952 -117.17698 22 ft 5 kts 84°
2026-04-23 17:07 32.72974 -117.17627 24 ft 11 kts 53°
2026-04-23 17:07 32.73030 -117.17631 22 ft 8 kts 308°
2026-04-23 17:08 32.73048 -117.17688 22 ft 8 kts 285°
2026-04-23 17:08 32.73096 -117.17895 21 ft 60 kts 286°
2026-04-23 17:08 32.73275 -117.18631 22 ft 123 kts 286°
2026-04-23 17:08 32.73558 -117.19800 41 ft 168 kts 287°
2026-04-23 17:09 32.73885 -117.21110 728 ft 160 kts 285°
2026-04-23 17:09 32.74163 -117.22379 1452 ft 158 kts 283°
2026-04-23 17:09 32.74408 -117.23648 2103 ft 155 kts 283°
2026-04-23 17:09 32.74626 -117.24885 2670 ft 154 kts 283°
2026-04-23 17:10 32.74845 -117.26184 2947 ft 169 kts 287°
2026-04-23 17:10 32.75217 -117.27599 3081 ft 190 kts 290°
2026-04-23 17:10 32.75659 -117.29165 3232 ft 210 kts 290°
2026-04-23 17:10 32.76142 -117.30906 3410 ft 235 kts 290°
2026-04-23 17:11 32.76492 -117.32827 4016 ft 243 kts 268°
2026-04-23 17:11 32.75914 -117.34713 4660 ft 252 kts 230°
2026-04-23 17:11 32.74434 -117.35861 5324 ft 257 kts 193°
2026-04-23 17:11 32.72689 -117.35751 6003 ft 261 kts 157°
2026-04-23 17:12 32.71181 -117.34542 6694 ft 265 kts 137°
2026-04-23 17:12 32.69876 -117.32976 7330 ft 269 kts 133°
2026-04-23 17:12 32.68610 -117.31305 7954 ft 274 kts 133°
2026-04-23 17:12 32.67323 -117.29623 8567 ft 278 kts 134°
2026-04-23 17:13 32.65984 -117.27945 9179 ft 282 kts 136°
2026-04-23 17:13 32.64604 -117.26263 9801 ft 287 kts 133°
2026-04-23 17:13 32.63493 -117.24274 10345 ft 293 kts 115°
2026-04-23 17:13 32.62883 -117.21904 10575 ft 311 kts 97°
2026-04-23 17:14 32.62664 -117.19264 10733 ft 333 kts 91°
2026-04-23 17:14 32.62974 -117.16482 10877 ft 350 kts 68°
2026-04-23 17:14 32.64213 -117.13961 11098 ft 359 kts 44°
2026-04-23 17:14 32.66016 -117.11880 11594 ft 364 kts 39°
2026-04-23 17:15 32.67871 -117.09807 12171 ft 369 kts 39°
2026-04-23 17:15 32.69751 -117.07708 12740 ft 373 kts 39°
2026-04-23 17:15 32.71651 -117.05578 13320 ft 378 kts 39°
2026-04-23 17:15 32.73570 -117.03419 13902 ft 382 kts 39°
2026-04-23 17:16 32.75513 -117.01233 14423 ft 386 kts 39°
2026-04-23 17:16 32.77469 -116.99031 14947 ft 390 kts 39°
2026-04-23 17:16 32.79442 -116.96805 15481 ft 393 kts 39°
2026-04-23 17:16 32.81438 -116.94551 15995 ft 397 kts 39°
2026-04-23 17:17 32.83451 -116.92278 16527 ft 400 kts 39°
2026-04-23 17:17 32.85473 -116.89992 17037 ft 404 kts 39°
2026-04-23 17:17 32.86825 -116.88460 17378 ft 406 kts 39°
2026-04-23 17:17 32.89580 -116.85341 18053 ft 411 kts 39°
2026-04-23 17:18 32.93727 -116.80643 18948 ft 418 kts 39°
2026-04-23 17:18 32.95842 -116.78245 19371 ft 421 kts 39°
2026-04-23 17:18 32.97967 -116.75829 19782 ft 424 kts 39°
2026-04-23 17:19 33.00104 -116.73396 20186 ft 426 kts 39°
2026-04-23 17:19 33.02252 -116.70952 20591 ft 429 kts 39°
2026-04-23 17:19 33.04426 -116.68480 20999 ft 433 kts 39°
2026-04-23 17:19 33.06618 -116.65985 21394 ft 436 kts 39°
2026-04-23 17:20 33.08816 -116.63483 21806 ft 439 kts 39°
2026-04-23 17:20 33.13258 -116.58420 22617 ft 445 kts 39°
2026-04-23 17:21 33.17761 -116.53270 23364 ft 452 kts 39°
2026-04-23 17:21 33.20038 -116.50664 23728 ft 454 kts 39°
2026-04-23 17:21 33.24632 -116.45404 24281 ft 461 kts 39°
2026-04-23 17:22 33.26959 -116.42736 24569 ft 464 kts 39°
2026-04-23 17:22 33.31647 -116.37349 25136 ft 471 kts 39°
2026-04-23 17:23 33.36383 -116.31905 25683 ft 478 kts 39°
2026-04-23 17:23 33.38791 -116.29137 25953 ft 481 kts 39°
2026-04-23 17:23 33.43646 -116.23543 26513 ft 487 kts 39°
2026-04-23 17:24 33.46096 -116.20720 26765 ft 490 kts 39°
2026-04-23 17:24 33.48560 -116.17875 27008 ft 493 kts 40°
2026-04-23 17:24 33.53524 -116.12128 27548 ft 499 kts 39°
2026-04-23 17:25 33.58542 -116.06319 28063 ft 504 kts 40°
2026-04-23 17:25 33.61071 -116.03385 28316 ft 507 kts 40°
2026-04-23 17:26 33.66184 -115.97495 28845 ft 512 kts 39°
2026-04-23 17:26 33.71322 -115.91601 29310 ft 517 kts 39°
2026-04-23 17:27 33.76541 -115.85598 29761 ft 522 kts 39°
2026-04-23 17:27 33.79168 -115.82566 29967 ft 524 kts 39°
2026-04-23 17:27 33.81808 -115.79514 30187 ft 527 kts 39°
2026-04-23 17:27 33.84451 -115.76458 30382 ft 529 kts 39°
2026-04-23 17:28 33.87096 -115.73394 30677 ft 528 kts 39°
2026-04-23 17:28 33.89741 -115.70328 30996 ft 527 kts 39°
2026-04-23 17:28 33.92390 -115.67256 31295 ft 527 kts 39°
2026-04-23 17:28 33.97790 -115.60989 31987 ft 525 kts 38°
2026-04-23 17:29 34.08275 -115.48773 33231 ft 523 kts 38°
2026-04-23 17:29 34.19005 -115.37057 34281 ft 510 kts 23°
2026-04-23 17:29 34.44463 -115.29508 35003 ft 453 kts 358°
2026-04-23 17:30 34.47146 -115.28977 34967 ft 458 kts 358°
2026-04-23 17:30 34.57747 -115.26897 35015 ft 464 kts 359°
2026-04-23 17:31 34.64124 -115.25609 35001 ft 464 kts 359°
2026-04-23 17:31 34.70494 -115.24309 35013 ft 464 kts 359°
2026-04-23 17:32 34.76822 -115.23028 35046 ft 464 kts
2026-04-23 17:32 34.83274 -115.21738 35024 ft 476 kts
2026-04-23 17:33 34.89867 -115.20421 35033 ft 485 kts
2026-04-23 17:33 34.96542 -115.19060 35032 ft 487 kts
2026-04-23 17:34 35.03226 -115.17694 35038 ft 486 kts
2026-04-23 17:35 35.12116 -115.15888 35049 ft 486 kts
2026-04-23 17:35 35.22134 -115.13855 35057 ft 487 kts
2026-04-23 17:36 35.28810 -115.12486 35094 ft 487 kts
2026-04-23 17:36 35.35496 -115.11105 35090 ft 486 kts
2026-04-23 17:37 35.42166 -115.09735 35094 ft 486 kts
2026-04-23 17:37 35.48758 -115.07560 35100 ft 502 kts 17°
2026-04-23 17:38 35.51837 -115.05461 35079 ft 511 kts 28°
2026-04-23 17:38 35.54618 -115.02692 35079 ft 520 kts 39°
2026-04-23 17:38 35.57094 -114.99405 35078 ft 524 kts 43°
2026-04-23 17:39 35.61966 -114.92723 35070 ft 525 kts 43°
2026-04-23 17:39 35.66848 -114.86023 35071 ft 526 kts 43°
2026-04-23 17:40 35.71744 -114.79333 35077 ft 526 kts 42°
2026-04-23 17:40 35.76646 -114.72644 35046 ft 526 kts 42°
2026-04-23 17:41 35.81544 -114.65928 35049 ft 527 kts 43°
2026-04-23 17:41 35.88877 -114.55834 35025 ft 527 kts 43°
2026-04-23 17:42 35.96197 -114.45714 35003 ft 527 kts 43°
2026-04-23 17:43 36.01079 -114.38959 34992 ft 527 kts 43°
2026-04-23 17:43 36.05990 -114.32244 34992 ft 524 kts 38°
2026-04-23 17:44 36.11729 -114.26991 35022 ft 506 kts 19°
2026-04-23 17:44 36.21252 -114.21720 34996 ft 499 kts 15°
2026-04-23 17:45 36.30764 -114.16538 34992 ft 500 kts 15°
2026-04-23 17:46 36.40328 -114.11320 35012 ft 501 kts 14°
2026-04-23 17:46 36.46712 -114.07825 35009 ft 502 kts 15°
2026-04-23 17:47 36.53104 -114.04324 35023 ft 502 kts 14°
2026-04-23 17:48 36.62699 -113.99059 35046 ft 503 kts 14°
2026-04-23 17:48 36.69089 -113.95532 35011 ft 502 kts 14°
2026-04-23 17:49 36.75478 -113.92009 35013 ft 502 kts 14°
2026-04-23 17:49 36.81874 -113.88489 35016 ft 502 kts 14°
2026-04-23 17:50 36.88264 -113.84952 35060 ft 503 kts 14°
2026-04-23 17:50 36.97838 -113.79637 35054 ft 502 kts 14°
2026-04-23 17:51 37.04229 -113.76092 35060 ft 502 kts 14°
2026-04-23 17:52 37.13813 -113.70747 35086 ft 503 kts 13°
2026-04-23 17:52 37.23373 -113.65401 35040 ft 501 kts 13°
2026-04-23 17:53 37.32936 -113.60053 35012 ft 501 kts 13°
2026-04-23 17:54 37.39312 -113.56479 35048 ft 502 kts 13°
2026-04-23 17:54 37.48823 -113.51127 35043 ft 502 kts 13°
2026-04-23 17:55 37.58391 -113.45721 35039 ft 502 kts 13°
2026-04-23 17:56 37.64757 -113.42120 35096 ft 502 kts 14°
2026-04-23 17:56 37.74298 -113.36719 35089 ft 501 kts 14°
2026-04-23 17:57 37.80657 -113.33101 35085 ft 501 kts 14°
2026-04-23 17:58 37.90153 -113.27685 35064 ft 488 kts 14°
2026-04-23 17:58 37.96236 -113.24179 35058 ft 477 kts 14°
2026-04-23 17:59 38.02278 -113.20741 35029 ft 476 kts 13°
2026-04-23 17:59 38.08318 -113.17299 35030 ft 476 kts 14°
2026-04-23 18:00 38.14354 -113.13836 35050 ft 475 kts 14°
2026-04-23 18:00 38.20370 -113.10372 35088 ft 475 kts 14°
2026-04-23 18:01 38.26384 -113.06909 35104 ft 475 kts 14°
2026-04-23 18:01 38.32397 -113.03438 35121 ft 474 kts 14°
2026-04-23 18:02 38.37400 -113.00557 35115 ft 474 kts 14°
2026-04-23 18:02 38.44442 -112.96765 35109 ft 472 kts 12°
2026-04-23 18:03 38.50527 -112.93607 35107 ft 472 kts 12°
2026-04-23 18:03 38.56613 -112.90395 35089 ft 473 kts 12°
2026-04-23 18:04 38.62686 -112.87129 35106 ft 474 kts 13°
2026-04-23 18:04 38.68759 -112.83854 35074 ft 473 kts 13°
2026-04-23 18:05 38.74818 -112.80593 34741 ft 471 kts 13°
2026-04-23 18:05 38.76816 -112.79519 34578 ft 470 kts 13°
2026-04-23 18:05 38.80279 -112.77660 34318 ft 470 kts 13°
2026-04-23 18:05 38.83296 -112.76040 34092 ft 470 kts 13°
2026-04-23 18:06 38.86315 -112.74415 33864 ft 469 kts 15°
2026-04-23 18:06 38.89433 -112.72730 33575 ft 466 kts 15°
2026-04-23 18:06 38.92424 -112.71110 33311 ft 465 kts 15°
2026-04-23 18:06 38.95393 -112.69504 33016 ft 461 kts 16°
2026-04-23 18:07 38.98345 -112.67906 32459 ft 458 kts 17°
2026-04-23 18:07 39.01271 -112.66323 31914 ft 455 kts 17°
2026-04-23 18:07 39.04179 -112.64750 31365 ft 452 kts 18°
2026-04-23 18:07 39.07068 -112.63185 30827 ft 448 kts 19°
2026-04-23 18:08 39.08964 -112.62157 30483 ft 446 kts 19°
2026-04-23 18:08 39.12779 -112.60081 29691 ft 442 kts 20°
2026-04-23 18:08 39.15586 -112.58549 29167 ft 436 kts 20°
2026-04-23 18:08 39.18368 -112.57031 28639 ft 432 kts 19°
2026-04-23 18:09 39.21117 -112.55531 28114 ft 427 kts 19°
2026-04-23 18:09 39.23839 -112.54045 27606 ft 422 kts 19°
2026-04-23 18:09 39.26531 -112.52573 27096 ft 418 kts 19°
2026-04-23 18:09 39.29190 -112.51119 26589 ft 413 kts 19°
2026-04-23 18:10 39.31820 -112.49672 26114 ft 409 kts 20°
2026-04-23 18:10 39.34421 -112.48205 25647 ft 405 kts 20°
2026-04-23 18:10 39.36983 -112.46731 25177 ft 401 kts 20°
2026-04-23 18:10 39.39516 -112.45260 24748 ft 397 kts 20°
2026-04-23 18:11 39.42026 -112.43802 24278 ft 393 kts 20°
2026-04-23 18:11 39.44475 -112.42386 23813 ft 390 kts 20°
2026-04-23 18:11 39.46974 -112.40946 23317 ft 386 kts 20°
2026-04-23 18:11 39.49386 -112.39556 22848 ft 381 kts 20°
2026-04-23 18:12 39.51792 -112.38170 22382 ft 376 kts 20°
2026-04-23 18:12 39.54165 -112.36806 21923 ft 371 kts 20°
2026-04-23 18:12 39.56511 -112.35456 21480 ft 367 kts 20°
2026-04-23 18:12 39.58836 -112.34115 21010 ft 364 kts 20°
2026-04-23 18:13 39.61137 -112.32785 20538 ft 360 kts 20°
2026-04-23 18:13 39.63420 -112.31466 20095 ft 357 kts 20°
2026-04-23 18:13 39.65682 -112.30162 19639 ft 355 kts 21°
2026-04-23 18:13 39.67934 -112.28862 19189 ft 352 kts 21°
2026-04-23 18:14 39.70163 -112.27572 18739 ft 350 kts 21°
2026-04-23 18:14 39.72380 -112.26286 18280 ft 348 kts 21°
2026-04-23 18:14 39.74580 -112.25009 17802 ft 345 kts 21°
2026-04-23 18:14 39.76762 -112.23745 17306 ft 342 kts 21°
2026-04-23 18:15 39.78929 -112.22494 16831 ft 340 kts 21°
2026-04-23 18:15 39.81086 -112.21246 16407 ft 337 kts 21°
2026-04-23 18:15 39.83215 -112.20009 15989 ft 333 kts 21°
2026-04-23 18:15 39.85318 -112.18783 15580 ft 330 kts 21°
2026-04-23 18:16 39.87399 -112.17567 15184 ft 326 kts 21°
2026-04-23 18:16 39.89460 -112.16362 14787 ft 324 kts 21°
2026-04-23 18:16 39.91504 -112.15167 14394 ft 321 kts 21°
2026-04-23 18:17 39.95498 -112.12831 14008 ft 304 kts 20°
2026-04-23 18:17 39.97398 -112.11782 13800 ft 291 kts 14°
2026-04-23 18:17 39.99345 -112.11024 13735 ft 292 kts 13°
2026-04-23 18:17 40.01297 -112.10260 13615 ft 292 kts 13°
2026-04-23 18:18 40.03242 -112.09490 13476 ft 292 kts 13°
2026-04-23 18:18 40.05180 -112.08714 13343 ft 291 kts 13°
2026-04-23 18:18 40.07118 -112.07935 13196 ft 291 kts 14°
2026-04-23 18:18 40.09053 -112.07157 13082 ft 291 kts 13°
2026-04-23 18:19 40.10991 -112.06382 12939 ft 291 kts 14°
2026-04-23 18:19 40.12927 -112.05606 12813 ft 291 kts 14°
2026-04-23 18:19 40.14857 -112.04834 12675 ft 290 kts 14°
2026-04-23 18:19 40.16789 -112.04061 12538 ft 290 kts 14°
2026-04-23 18:20 40.18716 -112.03290 12399 ft 290 kts 14°
2026-04-23 18:20 40.20649 -112.02514 12264 ft 289 kts 14°
2026-04-23 18:20 40.22543 -112.01753 12129 ft 289 kts 14°
2026-04-23 18:20 40.24462 -112.00982 11997 ft 289 kts 14°
2026-04-23 18:21 40.26384 -112.00208 11857 ft 288 kts 14°
2026-04-23 18:21 40.28294 -111.99442 11723 ft 286 kts 13°
2026-04-23 18:21 40.30195 -111.98679 11585 ft 285 kts 14°
2026-04-23 18:21 40.32094 -111.97916 11449 ft 286 kts 14°
2026-04-23 18:22 40.33989 -111.97151 11311 ft 284 kts 13°
2026-04-23 18:22 40.35852 -111.96401 11173 ft 274 kts 14°
2026-04-23 18:22 40.37635 -111.95679 11048 ft 264 kts 14°
2026-04-23 18:22 40.39383 -111.94978 10975 ft 260 kts 13°
2026-04-23 18:23 40.40559 -111.94528 10983 ft 260 kts 13°
2026-04-23 18:23 40.44672 -111.93497 10868 ft 261 kts 354°
2026-04-23 18:24 40.48295 -111.93922 10141 ft 260 kts 352°
2026-04-23 18:24 40.50116 -111.94142 9622 ft 266 kts 351°
2026-04-23 18:24 40.51942 -111.94363 9336 ft 262 kts 351°
2026-04-23 18:25 40.55567 -111.94783 8640 ft 261 kts 352°
2026-04-23 18:25 40.57365 -111.94988 8277 ft 257 kts 351°
2026-04-23 18:25 40.59135 -111.95192 7938 ft 254 kts 352°
2026-04-23 18:25 40.60891 -111.95395 7592 ft 249 kts 350°
2026-04-23 18:26 40.62574 -111.95589 7257 ft 243 kts 353°
2026-04-23 18:26 40.64264 -111.95785 6901 ft 244 kts 351°
2026-04-23 18:26 40.65951 -111.95980 6559 ft 243 kts 352°
2026-04-23 18:26 40.67556 -111.96163 6260 ft 219 kts 352°
2026-04-23 18:27 40.68983 -111.96326 6014 ft 195 kts 353°
2026-04-23 18:27 40.70261 -111.96476 5799 ft 173 kts 353°
2026-04-23 18:27 40.71415 -111.96588 5621 ft 161 kts 353°
2026-04-23 18:27 40.72507 -111.96720 5297 ft 154 kts 351°
2026-04-23 18:28 40.73568 -111.96879 5034 ft 153 kts 352°
2026-04-23 18:28 40.74628 -111.96986 4843 ft 154 kts 351°
2026-04-23 18:28 40.75690 -111.97096 4601 ft 153 kts 351°
2026-04-23 18:28 40.76743 -111.97231 4424 ft 152 kts 353°
2026-04-23 18:29 40.77779 -111.97352 4276 ft 150 kts 352°
2026-04-23 18:29 40.78732 -111.97465 4232 ft 114 kts 355°
2026-04-23 18:29 40.79340 -111.97534 4230 ft 63 kts 355°
2026-04-23 18:29 40.79638 -111.97574 4229 ft 24 kts 347°
2026-04-23 18:30 40.79690 -111.97671 4230 ft 12 kts 278°
2026-04-23 18:30 40.79659 -111.97759 4230 ft 10 kts 213°
2026-04-23 18:30 40.79599 -111.97778 4230 ft 8 kts 180°